| time (UTC) | temp F | wind direction | speed MPH | gust MPH | rain 1hr in | rain 24hr in | rain mn in | humidity % | barometer mb |
| 20260505223002 | 53 | 17 | 0.0 | 4.0 | 0.09 | 0.40 | 0.40 | 92 | 1007.4 |
| 20260505221602 | 53 | 53 | 0.0 | 2.0 | 0.11 | 0.39 | 0.39 | 92 | 1007.5 |
| 20260505220057 | 54 | 32 | 0.0 | 0.0 | 0.14 | 0.40 | 0.37 | 92 | 1007.2 |
| 20260505214555 | 55 | 68 | 0.0 | 0.0 | 0.17 | 0.37 | 0.34 | 91 | 1007.1 |
| 20260505213057 | 57 | 5 | 0.0 | 3.0 | 0.18 | 0.34 | 0.31 | 90 | 1007.1 |
| 20260505211551 | 58 | 295 | 0.0 | 2.0 | 0.17 | 0.30 | 0.27 | 92 | 1006.8 |
| 20260505210047 | 58 | 252 | 0.0 | 0.0 | 0.17 | 0.26 | 0.23 | 92 | 1007.1 |
| 20260505204545 | 59 | 232 | 0.0 | 1.0 | 0.11 | 0.19 | 0.16 | 90 | 1006.8 |
| 20260505203045 | 59 | 251 | 0.0 | 0.0 | 0.09 | 0.16 | 0.13 | 91 | 1006.7 |
| 20260505201547 | 59 | 250 | 0.0 | 0.0 | 0.07 | 0.13 | 0.10 | 90 | 1006.7 |
| 20260505200044 | 59 | 251 | 0.0 | 5.0 | 0.03 | 0.09 | 0.06 | 88 | 1006.7 |
| 20260505194539 | 60 | 269 | 0.0 | 0.0 | 0.02 | 0.08 | 0.05 | 86 | 1007.0 |
| 20260505193038 | 61 | 230 | 0.0 | 3.0 | 0.00 | 0.06 | 0.03 | 83 | 1007.0 |
| 20260505191536 | 63 | 271 | 0.0 | 8.0 | 0.00 | 0.06 | 0.03 | 79 | 1006.8 |
| 20260505190035 | 64 | 196 | 0.0 | 3.0 | 0.00 | 0.06 | 0.03 | 75 | 1006.9 |
| 20260505184535 | 64 | 249 | 0.0 | 3.0 | 0.00 | 0.06 | 0.03 | 72 | 1006.9 |
| 20260505183038 | 64 | 236 | 0.0 | 4.0 | 0.00 | 0.06 | 0.03 | 72 | 1006.9 |
| 20260505181534 | 65 | 211 | 1.0 | 8.0 | 0.00 | 0.06 | 0.03 | 70 | 1007.0 |
| 20260505180045 | 65 | 200 | 0.0 | 4.0 | 0.00 | 0.06 | 0.03 | 70 | 1006.9 |
| 20260505174538 | 65 | 285 | 0.0 | 4.0 | 0.00 | 0.06 | 0.03 | 70 | 1006.7 |
| 20260505173032 | 65 | 280 | 0.0 | 12.0 | 0.00 | 0.06 | 0.03 | 70 | 1006.7 |
| 20260505171533 | 66 | 253 | 0.0 | 10.0 | 0.00 | 0.06 | 0.03 | 69 | 1006.7 |
| 20260505170030 | 65 | 286 | 0.0 | 12.0 | 0.01 | 0.06 | 0.03 | 68 | 1006.7 |
| 20260505164529 | 66 | 304 | 0.0 | 12.0 | 0.01 | 0.06 | 0.03 | 66 | 1006.6 |
| 20260505163030 | 66 | 227 | 0.0 | 13.0 | 0.01 | 0.06 | 0.03 | 66 | 1006.5 |
| 20260505161527 | 67 | 224 | 0.0 | 11.0 | 0.01 | 0.06 | 0.03 | 65 | 1006.5 |
| 20260505153022 | 69 | 207 | 0.0 | 12.0 | 0.00 | 0.05 | 0.02 | 64 | 1005.6 |
| 20260505151519 | 68 | 208 | 1.0 | 6.0 | 0.00 | 0.05 | 0.02 | 62 | 1005.1 |
| 20260505124511 | 61 | 172 | 0.0 | 3.0 | 0.00 | 0.05 | 0.02 | 77 | 1005.4 |
| 20260505123014 | 61 | 266 | 0.0 | 6.0 | 0.00 | 0.05 | 0.02 | 77 | 1005.3 |
| 20260505121503 | 61 | 260 | 0.0 | 4.0 | 0.00 | 0.05 | 0.02 | 76 | 1005.1 |
| 20260505120104 | 60 | 221 | 0.0 | 0.0 | 0.00 | 0.05 | 0.02 | 77 | 1004.5 |
| 20260505114601 | 60 | 213 | 0.0 | 0.0 | 0.00 | 0.05 | 0.02 | 78 | 1003.9 |
| 20260505113057 | 60 | 237 | 0.0 | 2.0 | 0.00 | 0.05 | 0.02 | 77 | 1004.0 |
| 20260505111554 | 61 | 228 | 0.0 | 10.0 | 0.00 | 0.05 | 0.02 | 75 | 1003.9 |
| 20260505101602 | 63 | 204 | 0.0 | 4.0 | 0.00 | 0.05 | 0.02 | 70 | 1003.7 |
| 20260505100100 | 63 | 205 | 0.0 | 3.0 | 0.00 | 0.05 | 0.02 | 69 | 1003.4 |
| 20260505094545 | 64 | 221 | 0.0 | 3.0 | 0.00 | 0.05 | 0.02 | 68 | 1003.1 |
| 20260505093048 | 64 | 219 | 1.0 | 12.0 | 0.00 | 0.05 | 0.02 | 67 | 1002.9 |
| 20260505091544 | 64 | 225 | 0.0 | 9.0 | 0.00 | 0.05 | 0.02 | 67 | 1002.6 |
| 20260505091515 | 64 | 165 | 0.0 | 9.0 | 0.00 | 0.05 | 0.02 | 68 | 1002.7 |
| 20260505090043 | 64 | 224 | 0.0 | 5.0 | 0.00 | 0.05 | 0.02 | 67 | 1002.4 |
| 20260505084543 | 65 | 302 | 0.0 | 13.0 | 0.00 | 0.05 | 0.02 | 67 | 1002.4 |
| 20260505083042 | 65 | 246 | 1.0 | 6.0 | 0.00 | 0.05 | 0.02 | 68 | 1002.4 |
| 20260505081553 | 65 | 258 | 0.0 | 6.0 | 0.00 | 0.05 | 0.02 | 68 | 1002.6 |
| 20260505080048 | 64 | 209 | 1.0 | 9.0 | 0.00 | 0.05 | 0.02 | 69 | 1002.3 |
| 20260505074541 | 64 | 307 | 0.0 | 11.0 | 0.01 | 0.05 | 0.02 | 72 | 1002.2 |
| 20260505073040 | 63 | 256 | 0.0 | 6.0 | 0.02 | 0.05 | 0.02 | 75 | 1002.2 |
| 20260505071548 | 62 | 302 | 0.0 | 2.0 | 0.02 | 0.05 | 0.02 | 78 | 1002.0 |
| 20260505070035 | 63 | 242 | 0.0 | 4.0 | 0.02 | 0.05 | 0.02 | 77 | 1002.1 |
| 20260505064531 | 65 | 184 | 0.0 | 5.0 | 0.01 | 0.04 | 0.01 | 72 | 1002.4 |
| 20260505063033 | 64 | 169 | 0.0 | 4.0 | 0.00 | 0.03 | 0.00 | 69 | 1002.3 |
| 20260505061534 | 64 | 234 | 0.0 | 2.0 | 0.00 | 0.03 | 0.00 | 69 | 1002.4 |
| 20260505060028 | 65 | 286 | 0.0 | 2.0 | 0.00 | 0.03 | 0.00 | 69 | 1002.6 |
| 20260505054529 | 65 | 229 | 0.0 | 2.0 | 0.00 | 0.03 | 0.00 | 69 | 1002.7 |
| 20260505053036 | 65 | 252 | 0.0 | 2.0 | 0.00 | 0.03 | 0.00 | 69 | 1002.9 |
| 20260505051537 | 65 | 230 | 0.0 | 3.0 | 0.00 | 0.03 | 0.00 | 69 | 1003.1 |
| 20260505041523 | 65 | 205 | 0.0 | 5.0 | 0.00 | 0.03 | 0.00 | 68 | 1003.4 |
| 20260505040018 | 65 | 261 | 0.0 | 0.0 | 0.00 | 0.03 | 0.03 | 69 | 1003.5 |
| 20260505034517 | 65 | 297 | 0.0 | 5.0 | 0.00 | 0.03 | 0.03 | 68 | 1003.5 |
| 20260505033018 | 65 | 238 | 0.0 | 4.0 | 0.00 | 0.03 | 0.03 | 68 | 1003.6 |
| 20260505031517 | 65 | 111 | 0.0 | 1.0 | 0.00 | 0.03 | 0.03 | 68 | 1003.7 |
| 20260505030016 | 65 | 264 | 0.0 | 3.0 | 0.00 | 0.03 | 0.03 | 68 | 1003.8 |
| 20260505024517 | 65 | 217 | 0.0 | 8.0 | 0.00 | 0.03 | 0.03 | 67 | 1003.8 |
| 20260505023020 | 65 | 254 | 0.0 | 3.0 | 0.00 | 0.03 | 0.03 | 66 | 1003.8 |
| 20260505021516 | 65 | 288 | 0.0 | 0.0 | 0.00 | 0.03 | 0.03 | 65 | 1003.7 |
| 20260505020015 | 66 | 181 | 0.0 | 3.0 | 0.00 | 0.03 | 0.03 | 63 | 1003.8 |
| 20260505014515 | 67 | 286 | 0.0 | 4.0 | 0.00 | 0.03 | 0.03 | 61 | 1003.9 |
| 20260505013014 | 67 | 257 | 0.0 | 3.0 | 0.00 | 0.03 | 0.03 | 62 | 1003.8 |
| 20260505011520 | 67 | 146 | 0.0 | 1.0 | 0.00 | 0.03 | 0.03 | 61 | 1003.6 |
| 20260505010023 | 67 | 269 | 0.0 | 4.0 | 0.00 | 0.03 | 0.03 | 61 | 1003.5 |
| 20260505004513 | 68 | 126 | 0.0 | 2.0 | 0.00 | 0.03 | 0.03 | 61 | 1003.3 |
| 20260505003012 | 68 | 236 | 0.0 | 0.0 | 0.00 | 0.03 | 0.03 | 60 | 1003.2 |
| 20260505001512 | 69 | 238 | 0.0 | 3.0 | 0.00 | 0.03 | 0.03 | 59 | 1003.0 |
| 20260505000019 | 69 | 315 | 0.0 | 4.0 | 0.00 | 0.03 | 0.03 | 59 | 1002.8 |
| 20260504234511 | 69 | 236 | 0.0 | 4.0 | 0.00 | 0.03 | 0.03 | 59 | 1002.4 |
| 20260504233011 | 70 | 221 | 0.0 | 3.0 | 0.00 | 0.03 | 0.03 | 58 | 1002.2 |
| 20260504231510 | 70 | 305 | 0.0 | 6.0 | 0.00 | 0.03 | 0.03 | 58 | 1002.4 |
| 20260504230009 | 70 | 276 | 1.0 | 10.0 | 0.00 | 0.03 | 0.03 | 59 | 1002.5 |
| 20260504224507 | 70 | 241 | 0.0 | 7.0 | 0.02 | 0.03 | 0.03 | 63 | 1002.6 |
| 20260504223011 | 68 | 164 | 0.0 | 3.0 | 0.03 | 0.03 | 0.03 | 74 | 1002.8 |